Location: Unspecified
(17.6330°N, 0.0000°E)
Time: 01:09:29
(UTC+00:00)

A-11 Canister half - All Passes

Search period start: 18 June 2019 00:00
Search period end: 28 June 2019 00:00
Orbit: 1525 x 1684 km, 47.3° (Epoch: 16 June)

Date Brightness Start Highest point End Pass type
(mag) Time Alt. Az. Time Alt. Az. Time Alt. Az.
18 Jun - 02:02:39 10° S 02:10:31 28° SE 02:18:09 10° ENE visible
18 Jun - 04:05:37 10° SW 04:15:08 66° NW 04:24:24 10° NE visible
18 Jun - 06:15:41 10° WNW 06:21:28 17° NNW 06:27:13 10° N daylight
18 Jun - 10:34:58 10° N 10:40:27 17° NNE 10:45:58 10° ENE daylight
18 Jun - 12:37:39 10° NW 12:46:56 62° NE 12:56:29 10° SE daylight
18 Jun - 14:43:37 10° WNW 14:51:37 31° SW 14:59:52 10° S daylight
19 Jun - 01:41:17 10° S 01:48:54 26° SE 01:56:18 10° ENE visible
19 Jun - 03:43:54 10° SW 03:53:30 70° NW 04:02:50 10° NE visible
19 Jun - 05:53:38 10° WNW 05:59:43 19° NNW 06:05:46 10° NNE daylight
19 Jun - 10:13:32 10° N 10:18:41 16° NNE 10:23:52 10° ENE daylight
19 Jun - 12:16:06 10° NNW 12:25:18 58° NE 12:34:45 10° ESE daylight
19 Jun - 14:21:49 10° WNW 14:30:01 33° SW 14:38:28 10° S daylight
20 Jun - 01:19:57 10° S 01:27:18 24° SE 01:34:26 10° ENE visible
20 Jun - 03:22:12 10° SW 03:31:52 74° NW 03:41:14 10° NE visible
20 Jun - 05:31:36 10° WNW 05:37:59 20° NNW 05:44:18 10° NNE daylight
20 Jun - 09:52:06 10° N 09:56:54 15° NNE 10:01:44 10° ENE daylight
20 Jun - 11:54:32 10° NNW 12:03:39 54° NE 12:13:01 10° ESE daylight
20 Jun - 14:00:03 10° WNW 14:08:24 36° SW 14:17:01 10° S daylight
21 Jun - 00:58:38 10° S 01:05:40 22° SE 01:12:31 10° E visible
21 Jun - 03:00:32 10° SW 03:10:14 79° NW 03:19:39 10° NE visible
21 Jun - 05:09:35 10° WNW 05:16:14 21° NNW 05:22:50 10° NNE daylight
21 Jun - 09:30:41 10° N 09:35:07 14° NNE 09:39:34 10° NE daylight
21 Jun - 11:32:58 10° NNW 11:42:00 51° NE 11:51:15 10° ESE daylight
21 Jun - 13:38:17 10° WNW 13:46:47 38° SW 13:55:33 10° SSE daylight
22 Jun - 00:37:22 10° S 00:44:03 21° SE 00:50:35 10° E visible
22 Jun - 02:38:51 10° SW 02:48:37 84° NW 02:58:04 10° NE visible
22 Jun - 04:47:35 10° W 04:54:30 22° NNW 05:01:21 10° NNE visible
22 Jun - 09:09:18 10° N 09:13:20 13° NNE 09:17:23 10° NE daylight
22 Jun - 11:11:26 10° NNW 11:20:21 48° NE 11:29:28 10° ESE daylight
22 Jun - 13:16:34 10° WNW 13:25:11 41° SW 13:34:05 10° SSE daylight
23 Jun - 00:16:08 10° SSE 00:22:26 19° SE 00:28:35 10° E visible
23 Jun - 02:17:11 10° SW 02:26:59 88° NW 02:36:27 10° NE visible
23 Jun - 04:25:36 10° W 04:32:47 23° NNW 04:39:52 10° NNE visible
23 Jun - 08:47:56 10° N 08:51:32 12° NNE 08:55:09 10° NE daylight
23 Jun - 10:49:53 10° NNW 10:58:42 45° NE 11:07:42 10° ESE daylight
23 Jun - 12:54:50 10° WNW 13:03:34 44° SW 13:12:36 10° SSE daylight
23 Jun - 23:54:58 10° SSE 00:00:49 17° SE 00:06:32 10° E visible
24 Jun - 01:55:32 10° SW 02:05:21 87° SE 02:14:51 10° NE visible
24 Jun - 04:03:39 10° W 04:11:04 25° NW 04:18:22 10° NNE visible
24 Jun - 08:26:36 10° N 08:29:44 12° NNE 08:32:53 10° NE daylight
24 Jun - 10:28:20 10° NNW 10:37:02 42° NE 10:45:53 10° ESE daylight
24 Jun - 12:33:07 10° WNW 12:41:58 47° SW 12:51:05 10° SSE daylight
24 Jun - 23:33:51 10° SSE 23:39:11 16° SE 23:44:25 10° E visible
25 Jun - 01:33:53 10° SW 01:43:44 82° SE 01:53:14 10° NE visible
25 Jun - 03:41:41 10° W 03:49:20 26° NW 03:56:52 10° NNE visible
25 Jun - 08:05:20 10° N 08:07:56 11° NNE 08:10:32 10° NE daylight
25 Jun - 10:06:48 10° NNW 10:15:22 40° NE 10:24:05 10° ESE daylight
25 Jun - 12:11:26 10° WNW 12:20:21 51° SW 12:29:34 10° SSE daylight
25 Jun - 23:12:50 10° SSE 23:17:33 14° SE 23:22:12 10° E visible
26 Jun - 01:12:16 10° SW 01:22:06 78° SE 01:31:36 10° NE visible
26 Jun - 03:19:45 10° W 03:27:38 28° NW 03:35:22 10° NNE visible
26 Jun - 07:44:10 10° N 07:46:07 11° NNE 07:48:05 10° NNE daylight
26 Jun - 09:45:16 10° NNW 09:53:42 38° NE 10:02:16 10° ESE daylight
26 Jun - 11:49:44 10° NW 11:58:45 54° SW 12:08:02 10° SSE daylight
26 Jun - 22:51:57 10° SSE 22:55:56 13° SE 22:59:51 10° ESE night (unlit)
27 Jun - 00:50:39 10° SSW 01:00:29 73° SE 01:09:58 10° NE visible
27 Jun - 02:57:49 10° W 03:05:55 30° NW 03:13:51 10° NNE visible
27 Jun - 07:23:17 10° N 07:24:18 10° NNE 07:25:19 10° NNE daylight
27 Jun - 09:23:43 10° NNW 09:32:02 35° NE 09:40:25 10° ESE daylight
27 Jun - 11:28:04 10° NW 11:37:08 58° SW 11:46:30 10° SSE daylight
27 Jun - 22:31:18 10° SE 22:34:17 12° SE 22:37:15 10° ESE night (unlit)
